Flag for U.S.A. Weather past 2 weeks in Irvine, California, U.S.A.

Now
64 °F

Overcast.


Feels Like: 64 °F
Forecast: 51 / 71 °F
Wind: No wind

Location: John Wayne Airport-Orange County Airport

Current Time: Dec 20, 2014 at 7:04:46 PM

Latest Report: Dec 20, 2014 at 5:53 PM


Visibility: 10 mi

Pressure: 30.14 "Hg

Humidity: 68%

Dew point: 53 °F

Location of IrvineLocation

Historic Weather in Irvine — Graph

°F

Irvine temperature yesterday

Maximum temperature yesterday: 69 °F (at 12:53 PM)
Minimum temperature yesterday: 52 °F (at 3:53 AM)
Average temperature yesterday: 60 °F

Past Weeks' High & Low Weather Summary

 TemperatureHumidityPressure
High78 °F (Dec 8, 12:53 PM)88% (Dec 12, 6:00 AM)30.24 "Hg (Dec 12, 6:00 AM)
Low50 °F (Dec 14, 5:53 AM)39% (Dec 7, 2:53 PM)29.85 "Hg (Dec 12, 3:53 AM)
Average62 °F68%30.07 "Hg
* Reported Dec 5 5:53 PM — Dec 20 5:53 PM, Irvine, Weather by CustomWeather, © 2014

Note: Actual official high and low records may vary slightly from our data, if they occured in-between our weather recording intervals... More about our weather records

Advertising

Irvine weather history for previous 24 hours

 ConditionsComfort  
Time TempWeatherWind HumidityBarometerVisibility
5:53 PM
Dec 20
64 °FOvercast.No wind68%30.14 "Hg10 mi
4:53 PM63 °FMostly cloudy.5 mph73%30.13 "Hg9 mi
3:53 PM63 °FBroken clouds.7 mph70%30.12 "Hg10 mi
2:53 PM64 °FMore clouds than sun.7 mph65%30.11 "Hg10 mi
1:53 PM65 °FBroken clouds.6 mph61%30.12 "Hg10 mi
12:53 PM64 °FOvercast.3 mph63%30.15 "Hg10 mi
11:53 AM64 °FPartly sunny.5 mph61%30.15 "Hg10 mi
11:00 AM64 °FMostly cloudy.No wind56%30.17 "Hg10 mi
9:53 AM61 °FPartly sunny.No wind67%30.19 "Hg10 mi
8:53 AM58 °FPartly sunny.No wind72%30.19 "Hg10 mi
7:53 AM55 °FPartly sunny.3 mph74%30.17 "Hg10 mi
6:53 AM53 °FSunny.No wind77%30.16 "Hg10 mi
5:53 AM53 °FClear.3 mph77%30.14 "Hg10 mi
4:53 AM54 °FClear.No wind74%30.12 "Hg10 mi
3:53 AM53 °FClear.No wind77%30.14 "Hg10 mi
2:53 AM54 °FClear.No wind77%30.15 "Hg9 mi
1:53 AM55 °FClear.No wind80%30.14 "Hg10 mi
12:53 AM55 °FClear.No wind80%30.18 "Hg10 mi
11:53 PM
Dec 19
57 °FClear.No wind74%30.17 "Hg10 mi
10:53 PM59 °FPassing clouds.No wind69%30.17 "Hg10 mi
9:53 PM60 °FPassing clouds.No wind69%30.19 "Hg10 mi
8:53 PM61 °FPassing clouds.5 mph65%30.17 "Hg10 mi
7:53 PM62 °FPassing clouds.No wind62%30.18 "Hg10 mi
Weather by CustomWeather, © 2014

See weather overviewHow to use our weather pages